KN4CI-1 Weather Reports


Display with metric or nautical units.
time (UTC)temp
F
wind
direction
speed
MPH
gust
MPH
rain 1hr
in
rain 24hr
in
rain mn
in
humidity
%
barometer
mb
20220528195529 75 5 0.0 0.0 0.00 0.00 0.00 18 1014.6
20220528195030 75 73 0.0 0.0 0.00 0.00 0.00 18 1014.6
20220528194525 75 73 0.0 0.0 0.00 0.00 0.00 18 1015.6
20220528194026 76 356 0.0 0.0 0.00 0.00 0.00 18 1015.6
20220528193526 76 356 0.0 0.0 0.00 0.00 0.00 18 1015.6
20220528193022 76 77 0.0 3.0 0.00 0.00 0.00 18 1015.6
20220528192523 76 78 0.0 0.0 0.00 0.00 0.00 20 1015.6
20220528192023 75 79 0.0 4.0 0.00 0.00 0.00 21 1015.6
20220528191519 74 347 0.0 0.0 0.00 0.00 0.00 20 1015.6
20220528191020 74 347 0.0 0.0 0.00 0.00 0.00 20 1015.6
20220528190014 76 236 0.0 0.0 0.00 0.00 0.00 18 1015.6
20220528185515 76 237 0.0 0.0 0.00 0.00 0.00 18 1015.6
20220528185015 76 228 0.0 0.0 0.00 0.00 0.00 20 1015.6
20220528184511 75 218 0.0 0.0 0.00 0.00 0.00 20 1015.6
20220528184012 75 285 0.0 0.0 0.00 0.00 0.00 21 1015.6
20220528183512 74 55 0.0 0.0 0.00 0.00 0.00 21 1015.6
20220528183009 74 356 0.0 0.0 0.00 0.00 0.00 21 1015.6
20220528182509 75 356 0.0 0.0 0.00 0.00 0.00 18 1015.6
20220528182009 75 136 0.0 0.0 0.00 0.00 0.00 21 1015.6
20220528181506 74 50 0.0 5.0 0.00 0.00 0.00 21 1015.6
20220528181006 74 68 0.0 0.0 0.00 0.00 0.00 21 1015.6
20220528180506 73 68 0.0 0.0 0.00 0.00 0.00 21 1015.6
20220528180004 73 351 0.0 0.0 0.00 0.00 0.00 21 1015.6
20220528175504 74 351 0.0 5.0 0.00 0.00 0.00 21 1015.6
20220528175004 74 21 0.0 0.0 0.00 0.00 0.00 21 1015.6
20220528174501 74 21 0.0 0.0 0.00 0.00 0.00 18 1015.6
20220528173959 74 21 0.0 0.0 0.00 0.00 0.00 21 1015.6
20220528173500 73 20 0.0 0.0 0.00 0.00 0.00 21 1015.6
20220528172956 73 20 0.0 0.0 0.00 0.00 0.00 21 1016.6
20220528172456 73 20 0.0 0.0 0.00 0.00 0.00 21 1016.6
20220528171957 72 61 0.0 0.0 0.00 0.00 0.00 21 1016.6
20220528171451 72 351 0.0 0.0 0.00 0.00 0.00 21 1016.6
20220528170951 72 351 0.0 0.0 0.00 0.00 0.00 21 1016.6
20220528170450 73 347 0.0 0.0 0.00 0.00 0.00 21 1016.6
20220528165945 73 351 0.0 0.0 0.00 0.00 0.00 21 1016.6
20220528165445 74 351 0.0 4.0 0.00 0.00 0.00 21 1016.6
20220528164946 74 53 3.0 5.0 0.00 0.00 0.00 18 1016.6
20220528164442 73 60 0.0 0.0 0.00 0.00 0.00 23 1016.6
20220528163943 72 60 0.0 3.0 0.00 0.00 0.00 21 1016.6
20220528163443 72 60 0.0 0.0 0.00 0.00 0.00 22 1016.6
20220528162938 72 61 0.0 0.0 0.00 0.00 0.00 23 1016.6
20220528162439 72 61 0.0 4.0 0.00 0.00 0.00 22 1016.6
20220528161939 72 61 0.0 4.0 0.00 0.00 0.00 22 1016.6
20220528161436 71 61 0.0 6.0 0.00 0.00 0.00 23 1016.6
20220528160937 72 48 0.0 0.0 0.00 0.00 0.00 22 1016.6
20220528160437 71 48 0.0 0.0 0.00 0.00 0.00 22 1016.6
20220528155933 71 48 0.0 5.0 0.00 0.00 0.00 23 1016.6
20220528155433 71 70 0.0 3.0 0.00 0.00 0.00 24 1016.6
20220528154934 71 72 0.0 0.0 0.00 0.00 0.00 25 1016.6
20220528154429 70 72 0.0 4.0 0.00 0.00 0.00 24 1016.6
20220528153930 70 44 0.0 0.0 0.00 0.00 0.00 25 1016.6
20220528153430 70 44 0.0 0.0 0.00 0.00 0.00 27 1016.6
20220528152926 70 44 0.0 3.0 0.00 0.00 0.00 28 1016.6
20220528152427 69 44 0.0 5.0 0.00 0.00 0.00 30 1016.6
20220528151927 69 68 4.0 4.0 0.00 0.00 0.00 29 1016.6
20220528151423 69 61 0.0 0.0 0.00 0.00 0.00 31 1016.6
20220528150924 69 61 0.0 0.0 0.00 0.00 0.00 32 1016.6
20220528150424 68 60 3.0 5.0 0.00 0.00 0.00 28 1016.6
20220528145915 69 45 0.0 4.0 0.00 0.00 0.00 33 1016.6
20220528145416 69 45 4.0 5.0 0.00 0.00 0.00 33 1016.6
20220528144411 68 33 3.0 6.0 0.00 0.00 0.00 33 1016.6
20220528143911 68 64 0.0 0.0 0.00 0.00 0.00 35 1016.6
20220528143412 68 64 0.0 4.0 0.00 0.00 0.00 34 1016.6
20220528142908 68 64 0.0 5.0 0.00 0.00 0.00 33 1016.6
20220528142359 68 72 3.0 7.0 0.00 0.00 0.00 32 1016.6
20220528141854 69 57 5.0 7.0 0.00 0.00 0.00 32 1016.6
20220528141351 68 76 0.0 7.0 0.00 0.00 0.00 34 1016.6
20220528140851 68 54 4.0 4.0 0.00 0.00 0.00 34 1016.6
20220528140351 68 59 0.0 5.0 0.00 0.00 0.00 42 1016.6
20220528135847 68 59 0.0 4.0 0.00 0.00 0.00 42 1016.6
20220528135348 67 5 0.0 4.0 0.00 0.00 0.00 43 1016.6
20220528134848 67 33 3.0 6.0 0.00 0.00 0.00 44 1016.6
20220528134343 66 53 0.0 5.0 0.00 0.00 0.00 42 1016.6
20220528133843 66 72 0.0 7.0 0.00 0.00 0.00 44 1016.6
20220528133344 66 53 0.0 7.0 0.00 0.00 0.00 40 1016.6
20220528132840 66 65 4.0 6.0 0.00 0.00 0.00 44 1016.6
20220528132340 66 53 4.0 6.0 0.00 0.00 0.00 47 1016.6
20220528131841 66 54 3.0 6.0 0.00 0.00 0.00 56 1016.6
20220528131337 66 58 3.0 4.0 0.00 0.00 0.00 63 1016.6
20220528130837 65 58 0.0 3.0 0.00 0.00 0.00 66 1016.6
20220528130337 65 62 0.0 0.0 0.00 0.00 0.00 69 1016.6
20220528125833 64 62 0.0 4.0 0.00 0.00 0.00 69 1016.6
20220528125333 64 62 0.0 0.0 0.00 0.00 0.00 70 1016.6
20220528124833 64 62 0.0 4.0 0.00 0.00 0.00 71 1016.6
20220528124329 63 62 0.0 4.0 0.00 0.00 0.00 72 1016.6
20220528123828 63 62 0.0 0.0 0.00 0.00 0.00 72 1016.6
20220528123326 63 62 0.0 0.0 0.00 0.00 0.00 72 1016.6
20220528122822 62 62 0.0 0.0 0.00 0.00 0.00 72 1015.6
20220528122321 62 62 0.0 0.0 0.00 0.00 0.00 72 1015.6
20220528121819 61 62 0.0 0.0 0.00 0.00 0.00 72 1015.6
20220528121315 61 62 0.0 0.0 0.00 0.00 0.00 73 1015.6
20220528120814 60 62 0.0 0.0 0.00 0.00 0.00 73 1015.6
20220528120312 60 62 0.0 0.0 0.00 0.00 0.00 72 1015.6
20220528115807 59 62 0.0 0.0 0.00 0.00 0.00 73 1015.6
20220528115307 59 62 0.0 0.0 0.00 0.00 0.00 72 1015.6
20220528114807 58 62 0.0 0.0 0.00 0.00 0.00 72 1015.6
20220528114302 58 62 0.0 0.0 0.00 0.00 0.00 72 1015.6
20220528113802 57 62 0.0 0.0 0.00 0.00 0.00 72 1015.6
20220528113302 57 62 0.0 0.0 0.00 0.00 0.00 72 1015.6
20220528112759 57 62 0.0 0.0 0.00 0.00 0.00 72 1015.6
20220528112259 57 62 0.0 0.0 0.00 0.00 0.00 71 1015.6
20220528111254 56 62 0.0 0.0 0.00 0.00 0.00 71 1015.6
20220528105750 56 62 0.0 0.0 0.00 0.00 0.00 70 1015.6
20220528105251 56 62 0.0 0.0 0.00 0.00 0.00 70 1015.6
20220528104751 56 62 0.0 0.0 0.00 0.00 0.00 70 1015.6
20220528104246 56 62 0.0 0.0 0.00 0.00 0.00 70 1015.6
20220528103746 56 62 0.0 0.0 0.00 0.00 0.00 70 1015.6
20220528103247 56 62 0.0 0.0 0.00 0.00 0.00 69 1015.6
20220528102742 56 62 0.0 0.0 0.00 0.00 0.00 69 1015.6
20220528102242 56 62 0.0 0.0 0.00 0.00 0.00 69 1015.6
20220528101743 56 62 0.0 0.0 0.00 0.00 0.00 69 1015.6
20220528101238 56 62 0.0 0.0 0.00 0.00 0.00 69 1014.6
20220528100238 57 62 0.0 0.0 0.00 0.00 0.00 69 1014.6
20220528095734 56 62 0.0 0.0 0.00 0.00 0.00 69 1014.6
20220528095234 56 62 0.0 0.0 0.00 0.00 0.00 69 1014.6
20220528094734 56 62 0.0 0.0 0.00 0.00 0.00 68 1014.6
20220528094230 57 61 0.0 0.0 0.00 0.00 0.00 68 1014.6
20220528093730 57 62 0.0 0.0 0.00 0.00 0.00 68 1014.6
20220528093231 56 61 0.0 0.0 0.00 0.00 0.00 68 1014.6
20220528092727 56 62 0.0 0.0 0.00 0.00 0.00 68 1014.6
20220528092227 56 61 0.0 0.0 0.00 0.00 0.00 67 1014.6
20220528091727 56 62 0.0 0.0 0.00 0.00 0.00 67 1014.6
20220528091223 56 62 0.0 0.0 0.00 0.00 0.00 66 1014.6
20220528090724 57 62 0.0 0.0 0.00 0.00 0.00 67 1014.6
20220528090224 57 62 0.0 0.0 0.00 0.00 0.00 67 1014.6
20220528085720 57 62 0.0 0.0 0.00 0.00 0.00 67 1014.6
20220528085220 57 62 0.0 0.0 0.00 0.00 0.00 67 1014.6
20220528084720 57 62 0.0 0.0 0.00 0.00 0.00 66 1014.6
20220528084217 56 62 0.0 0.0 0.00 0.00 0.00 66 1014.6
20220528083717 56 62 0.0 0.0 0.00 0.00 0.00 65 1014.6
20220528083217 57 62 0.0 0.0 0.00 0.00 0.00 65 1014.6
20220528082713 57 62 0.0 0.0 0.00 0.00 0.00 65 1014.6
20220528082213 57 62 0.0 0.0 0.00 0.00 0.00 65 1014.6
20220528081713 57 62 0.0 0.0 0.00 0.00 0.00 65 1014.6
20220528081209 57 61 0.0 0.0 0.00 0.00 0.00 65 1014.6
20220528080709 57 62 0.0 0.0 0.00 0.00 0.00 65 1014.6
20220528080209 58 62 0.0 0.0 0.00 0.00 0.00 64 1014.6
20220528075706 58 62 0.0 0.0 0.00 0.00 0.00 65 1014.6
20220528075206 58 62 0.0 0.0 0.00 0.00 0.00 65 1014.6
20220528074706 58 62 0.0 0.0 0.00 0.00 0.00 65 1014.6
20220528074203 58 62 0.0 0.0 0.00 0.00 0.00 64 1014.6
20220528073703 58 61 0.0 0.0 0.00 0.00 0.00 64 1014.6
20220528073203 58 61 0.0 0.0 0.00 0.00 0.00 63 1014.6
20220528072659 58 62 0.0 0.0 0.00 0.00 0.00 63 1014.6
20220528072200 58 62 0.0 0.0 0.00 0.00 0.00 63 1014.6
20220528071657 59 62 0.0 0.0 0.00 0.00 0.00 63 1014.6
20220528071153 59 62 0.0 0.0 0.00 0.00 0.00 63 1014.6
20220528070654 59 62 0.0 0.0 0.00 0.00 0.00 63 1014.6
20220528070154 59 62 0.0 0.0 0.00 0.00 0.00 62 1014.6
20220528065650 59 62 0.0 0.0 0.00 0.00 0.00 63 1014.6
20220528065150 59 62 0.0 0.0 0.00 0.00 0.00 63 1014.6
20220528064954 59 62 0.0 0.0 0.00 0.00 0.00 62 1014.6
20220528064650 59 62 0.0 0.0 0.00 0.00 0.00 62 1014.6
20220528064145 59 62 0.0 0.0 0.00 0.00 0.00 62 1014.6
20220528063645 59 62 0.0 0.0 0.00 0.00 0.00 62 1014.6
20220528063145 59 62 0.0 0.0 0.00 0.00 0.00 62 1014.6
20220528062641 59 62 0.0 0.0 0.00 0.00 0.00 60 1014.6
20220528062141 59 62 0.0 0.0 0.00 0.00 0.00 59 1014.6
20220528061641 59 62 0.0 0.0 0.00 0.00 0.00 59 1014.6
20220528061138 60 62 0.0 0.0 0.00 0.00 0.00 59 1014.6
20220528060638 60 62 0.0 0.0 0.00 0.00 0.00 59 1014.6
20220528060138 60 62 0.0 0.0 0.00 0.00 0.00 59 1014.6
20220528055633 60 62 0.0 0.0 0.00 0.00 0.00 58 1014.6
20220528055134 60 62 0.0 0.0 0.00 0.00 0.00 57 1014.6
20220528054634 60 61 0.0 0.0 0.00 0.00 0.00 57 1015.6
20220528054130 60 62 0.0 0.0 0.00 0.00 0.00 57 1015.6
20220528053630 60 62 0.0 0.0 0.00 0.00 0.00 56 1015.6
20220528053131 60 62 0.0 0.0 0.00 0.00 0.00 56 1015.6
20220528052627 60 62 0.0 0.0 0.00 0.00 0.00 56 1015.6
20220528052127 61 62 0.0 0.0 0.00 0.00 0.00 56 1015.6
20220528051627 61 62 0.0 0.0 0.00 0.00 0.00 55 1015.6
20220528051124 61 62 0.0 0.0 0.00 0.00 0.00 54 1015.6
20220528050624 61 62 0.0 0.0 0.00 0.00 0.00 54 1015.6
20220528050124 61 62 0.0 0.0 0.00 0.00 0.00 53 1015.6
20220528045621 61 62 0.0 0.0 0.00 0.00 0.00 53 1015.6
20220528045121 62 62 0.0 0.0 0.00 0.00 0.00 53 1015.6
20220528044621 62 62 0.0 0.0 0.00 0.00 0.00 52 1015.6
20220528044118 62 61 0.0 0.0 0.00 0.00 0.00 51 1015.6
20220528043618 62 62 0.0 0.0 0.00 0.00 0.00 51 1015.6
20220528043118 62 62 0.0 0.0 0.00 0.00 0.00 51 1015.6
20220528042616 62 62 0.0 0.0 0.00 0.00 0.00 50 1015.6
20220528042116 62 62 0.0 0.0 0.00 0.00 0.00 50 1015.6
20220528041616 63 62 0.0 0.0 0.00 0.00 0.00 49 1015.6
20220528041113 63 62 0.0 0.0 0.00 0.00 0.00 49 1015.6
20220528040613 63 62 0.0 0.0 0.00 0.00 0.00 49 1015.6
20220528040114 64 62 0.0 0.0 0.00 0.00 0.00 48 1015.6
20220528035611 64 62 0.0 0.0 0.00 0.00 0.00 48 1015.6
20220528035111 64 62 0.0 0.0 0.00 0.00 0.00 47 1015.6
20220528034609 64 62 0.0 0.0 0.00 0.00 0.00 48 1015.6
20220528034107 64 62 0.0 0.0 0.00 0.00 0.00 47 1015.6
20220528033607 65 62 0.0 0.0 0.00 0.00 0.00 47 1015.6
20220528033107 65 62 0.0 0.0 0.00 0.00 0.00 47 1015.6
20220528032604 65 62 0.0 0.0 0.00 0.00 0.00 46 1015.6
20220528032105 65 62 0.0 3.0 0.00 0.00 0.00 46 1015.6
20220528031605 65 61 0.0 0.0 0.00 0.00 0.00 46 1015.6
20220528031102 65 62 0.0 0.0 0.00 0.00 0.00 45 1015.6
20220528030602 65 62 0.0 0.0 0.00 0.00 0.00 45 1015.6
20220528030103 65 62 0.0 0.0 0.00 0.00 0.00 44 1015.6
20220528025600 66 62 0.0 0.0 0.00 0.00 0.00 44 1015.6
20220528025100 66 62 0.0 0.0 0.00 0.00 0.00 44 1015.6
20220528024601 66 62 0.0 0.0 0.00 0.00 0.00 44 1014.6
20220528024058 66 61 0.0 0.0 0.00 0.00 0.00 44 1014.6
20220528023558 66 61 0.0 0.0 0.00 0.00 0.00 45 1014.6
20220528023058 66 62 0.0 4.0 0.00 0.00 0.00 45 1014.6
20220528022556 66 62 0.0 0.0 0.00 0.00 0.00 46 1014.6
20220528022056 66 62 0.0 0.0 0.00 0.00 0.00 46 1014.6
20220528021556 66 62 0.0 0.0 0.00 0.00 0.00 46 1014.6
20220528021053 66 62 0.0 0.0 0.00 0.00 0.00 46 1014.6
20220528020554 66 62 0.0 0.0 0.00 0.00 0.00 46 1014.6
20220528020053 66 62 0.0 0.0 0.00 0.00 0.00 44 1014.6
20220528015550 66 62 0.0 0.0 0.00 0.00 0.00 44 1014.6
20220528015050 66 62 0.0 0.0 0.00 0.00 0.00 43 1014.6
20220528014550 67 62 0.0 0.0 0.00 0.00 0.00 43 1014.6
20220528014048 67 62 0.0 0.0 0.00 0.00 0.00 43 1014.6
20220528013548 67 62 0.0 0.0 0.00 0.00 0.00 42 1014.6
20220528013048 67 62 0.0 0.0 0.00 0.00 0.00 41 1014.6
20220528012546 67 62 0.0 0.0 0.00 0.00 0.00 40 1014.6
20220528011546 67 62 0.0 0.0 0.00 0.00 0.00 38 1014.6
20220528011044 67 62 0.0 0.0 0.00 0.00 0.00 37 1014.6
20220528010544 67 62 0.0 0.0 0.00 0.00 0.00 36 1014.6
20220528010044 67 62 0.0 0.0 0.00 0.00 0.00 36 1014.6
20220528005541 68 62 0.0 0.0 0.00 0.00 0.00 35 1014.6
20220528005042 68 62 0.0 0.0 0.00 0.00 0.00 34 1014.6
20220528004542 68 62 0.0 0.0 0.00 0.00 0.00 34 1014.6
20220528004037 68 62 0.0 0.0 0.00 0.00 0.00 33 1014.6
20220528003538 69 62 0.0 0.0 0.00 0.00 0.00 33 1014.6
20220528003038 69 62 0.0 0.0 0.00 0.00 0.00 33 1014.6
20220528002535 69 62 0.0 0.0 0.00 0.00 0.00 32 1014.6
20220528002036 69 62 0.0 0.0 0.00 0.00 0.00 32 1014.6
20220528001033 69 62 0.0 0.0 0.00 0.00 0.00 29 1014.6
20220528000533 70 62 0.0 0.0 0.00 0.00 0.00 28 1014.6
20220528000034 70 62 0.0 0.0 0.00 0.00 0.00 28 1013.6
20220527235531 70 62 0.0 0.0 0.00 0.00 0.00 27 1013.6
20220527235031 70 62 0.0 0.0 0.00 0.00 0.00 26 1013.6
20220527234532 70 62 0.0 0.0 0.00 0.00 0.00 25 1013.6
20220527234028 70 62 0.0 0.0 0.00 0.00 0.00 25 1013.6
20220527233528 70 62 0.0 0.0 0.00 0.00 0.00 25 1013.6
20220527233028 70 62 0.0 0.0 0.00 0.00 0.00 24 1013.6
20220527232526 70 62 0.0 0.0 0.00 0.00 0.00 25 1013.6
20220527232026 70 62 0.0 0.0 0.00 0.00 0.00 24 1013.6
20220527231526 70 62 0.0 0.0 0.00 0.00 0.00 24 1013.6
20220527231024 70 62 0.0 0.0 0.00 0.00 0.00 24 1013.6
20220527230524 71 62 0.0 0.0 0.00 0.00 0.00 24 1013.6
20220527230024 71 62 0.0 3.0 0.00 0.00 0.00 23 1013.6
20220527225522 71 62 0.0 4.0 0.00 0.00 0.00 22 1013.6
20220527225022 71 261 0.0 3.0 0.00 0.00 0.00 23 1013.6
20220527224522 72 250 0.0 3.0 0.00 0.00 0.00 23 1013.6
20220527224020 71 250 0.0 4.0 0.00 0.00 0.00 22 1013.6
20220527223520 71 250 0.0 5.0 0.00 0.00 0.00 22 1013.6
20220527223020 71 356 0.0 3.0 0.00 0.00 0.00 22 1013.6
20220527222517 71 332 0.0 4.0 0.00 0.00 0.00 22 1013.6
20220527222018 71 332 0.0 4.0 0.00 0.00 0.00 22 1013.6
20220527221518 72 256 0.0 0.0 0.00 0.00 0.00 22 1013.6
20220527221015 72 256 0.0 4.0 0.00 0.00 0.00 22 1013.6
20220527220514 72 256 0.0 3.0 0.00 0.00 0.00 22 1013.6
20220527220014 72 251 0.0 3.0 0.00 0.00 0.00 21 1013.6
20220527215511 72 251 0.0 4.0 0.00 0.00 0.00 22 1013.6
20220527215012 72 250 0.0 0.0 0.00 0.00 0.00 22 1013.6
20220527214512 72 250 0.0 4.0 0.00 0.00 0.00 22 1013.6
20220527214008 72 152 0.0 3.0 0.00 0.00 0.00 22 1013.6
20220527213508 72 152 3.0 4.0 0.00 0.00 0.00 22 1013.6
20220527213008 72 151 0.0 5.0 0.00 0.00 0.00 22 1013.6
20220527212505 72 249 0.0 0.0 0.00 0.00 0.00 22 1013.6
20220527212004 72 249 0.0 4.0 0.00 0.00 0.00 22 1013.6
20220527211505 72 249 0.0 5.0 0.00 0.00 0.00 22 1013.6
20220527211002 71 206 3.0 4.0 0.00 0.00 0.00 22 1013.6
20220527210502 71 24 0.0 3.0 0.00 0.00 0.00 22 1013.6
20220527205459 72 24 0.0 7.0 0.00 0.00 0.00 22 1013.6
20220527204459 72 340 0.0 4.0 0.00 0.00 0.00 21 1013.6
20220527203956 72 107 3.0 4.0 0.00 0.00 0.00 21 1013.6
20220527203456 72 53 0.0 5.0 0.00 0.00 0.00 21 1013.6
20220527202956 73 150 3.0 4.0 0.00 0.00 0.00 21 1013.6
20220527202452 72 61 0.0 4.0 0.00 0.00 0.00 21 1013.6
20220527201952 72 61 0.0 3.0 0.00 0.00 0.00 21 1013.6
20220527201451 72 61 0.0 4.0 0.00 0.00 0.00 21 1013.6
20220527200948 72 51 0.0 4.0 0.00 0.00 0.00 21 1013.6
20220527200440 72 43 0.0 3.0 0.00 0.00 0.00 21 1013.6
20220527195938 72 33 0.0 3.0 0.00 0.00 0.00 21 1013.6